Location: Arbon
(43.0005°N, 0.7472°E)
Time: 03:31:18
(UTC+00:00)

Meteor 1-24 Rocket - Pass Details

Date: 07 August 2020
Orbit: 789 x 928 km, 81.2° (Epoch: 27 September)

Event Time Altitude Azimuth Distance (km) Brightness Sun altitude
Rises 01:58:07 0° 353° (N) 3,397 7.6 -25.0°
Reaches altitude 10° 02:00:37 10° 357° (N) 2,439 6.8 -24.8°
Maximum altitude 02:06:03 61° 77° (ENE) 917 4.0 -24.3°
Enters shadow 02:08:27 32° 145° (SE) 1,349 4.5 -24.0°
